ATLAS 5 CENTAUR DEB, 49348

Orbit data source: Space-Track

ATLAS 5 CENTAUR DEB, 49348 is space debris in HEO originally from a launch on Wed, 17 Oct 2018 UTC launched from the Air Force Eastern Test Range (AFETR). Debris objects in space refer to the collection of defunct objects orbiting the Earth. Examples of debris include non-operational satellites, rocket bodies, and fragments generated from explosions, collisions, or faulty payload assembly.

Loading next visibility...
Identifier
49348, 2018-079EZ
Orbit
HEO
Country
Flag of USUS
Related business
Flag of USUnited Launch Alliance/Lockheed Martin (US)
Manufacturer
ULA Decatur
Mission
Spacecraft
Bus & Motor
Unknown
Mass
Unknown
Launch date (UTC)
2018-10-17 (7 years ago)
Launch vehicle
Unknown
Launch site
Air Force Eastern Test Range (AFETR)
Object type
Payload
Rocket body
Debris
Shape & HBR
Unknown shape, 1.1 m
Radar Cross Section
RCS unknown

Expand to show TLE details & history
Last TLE update: 8 hours ago

TLE from 8 hours ago
0 ATLAS 5 CENTAUR DEB
1 49348U 18079EZ  26037.34713737 -.00000109  00000-0  00000+0 0  9996
2 49348  13.0971  13.4325 4396478  10.2924 356.2835  2.01937760 32763
Epoch: 2026-02-06T08:19Z
TLE epoch observation values (Epoch: 2026-02-06T08:19:52.668Z)
Latitude
0.00004°
Longitude
111.99591°
Altitude
8,522.819 km
Speed
6.199 km/s
True Right ascension
00h 53m 48s
True Declination
0° 00' 00"
Sunlit
Object was in daylight at epoch
Visualization orbit readout
Latitude
Unknown
Longitude
Unknown
Altitude
Unknown
Speed
Unknown
Apparent Right ascension
Unknown
Apparent Declination
Unknown
Sunlit
N/A
Visualization observer readout
Local Sidereal Time
18:09:30
Azimuth
Unknown
Elevation
Unknown
Doppler factor
Unknown
Orbital elements
Apogee altitude
31,688.823 km
Perigee altitude
8,438.615 km
Semi-major axis
26,441.856 km
Eccentricity
0.43965
Inclination
13.0971°
RAAN
13.4325°
Arg. of periapsis
10.2924°
True anomaly
349.40606°
Mean anomaly
356.2835°
Eccentric anomaly
353.37912°
Mean motion
0.50478 °/min
Orbital period
713.18 mins
BSTAR
0
Loading maneuver chart data...
Computing Atmospheric mass density...

Documentation

Showing up to 5 results
|